Year,Month,Day,Hour,Minute,Value (Times are PST for temperature in C)
2007,08,15,00,00,14.60
2007,08,15,00,01,14.60
2007,08,15,00,02,14.60
2007,08,15,00,03,14.60
2007,08,15,00,04,14.60
2007,08,15,00,05,14.60
2007,08,15,00,06,14.60
2007,08,15,00,07,14.50
2007,08,15,00,08,14.50
2007,08,15,00,09,14.50
2007,08,15,00,10,14.50
2007,08,15,00,11,14.50
2007,08,15,00,12,14.50
2007,08,15,00,13,14.50
2007,08,15,00,14,14.40
2007,08,15,00,15,14.40
2007,08,15,00,16,14.40
2007,08,15,00,17,14.40
2007,08,15,00,18,14.40
2007,08,15,00,19,14.40
2007,08,15,00,20,14.40
2007,08,15,00,21,14.30
2007,08,15,00,22,14.30
2007,08,15,00,23,14.30
2007,08,15,00,24,14.30
2007,08,15,00,25,14.30
2007,08,15,00,26,14.30
2007,08,15,00,27,14.30
2007,08,15,00,28,14.30
2007,08,15,00,29,14.30
2007,08,15,00,30,14.20
2007,08,15,00,31,14.20
2007,08,15,00,32,14.20
2007,08,15,00,33,14.20
2007,08,15,00,34,14.20
2007,08,15,00,35,14.20
2007,08,15,00,36,14.20
2007,08,15,00,37,14.20
2007,08,15,00,38,14.20
2007,08,15,00,39,14.20
2007,08,15,00,40,14.20
2007,08,15,00,41,14.20
2007,08,15,00,42,14.20
2007,08,15,00,43,14.20
2007,08,15,00,44,14.20
2007,08,15,00,45,14.10
2007,08,15,00,46,14.10
2007,08,15,00,47,14.10
2007,08,15,00,48,14.10
2007,08,15,00,49,14.00
2007,08,15,00,50,14.00
2007,08,15,00,51,14.00
2007,08,15,00,52,14.00
2007,08,15,00,53,13.90
2007,08,15,00,54,13.90
2007,08,15,00,55,13.90
2007,08,15,00,56,13.80
2007,08,15,00,57,13.80
2007,08,15,00,58,13.80
2007,08,15,00,59,13.80
2007,08,15,01,00,13.80
2007,08,15,01,01,13.80
2007,08,15,01,02,13.80
2007,08,15,01,03,13.70
2007,08,15,01,04,13.70
2007,08,15,01,05,13.70
2007,08,15,01,06,13.70
2007,08,15,01,07,13.70
2007,08,15,01,08,13.70
2007,08,15,01,09,13.70
2007,08,15,01,10,13.70
2007,08,15,01,11,13.70
2007,08,15,01,12,13.70
2007,08,15,01,13,13.70
2007,08,15,01,14,13.70
2007,08,15,01,15,13.70
2007,08,15,01,16,13.70
2007,08,15,01,17,13.70
2007,08,15,01,18,13.60
2007,08,15,01,19,13.60
2007,08,15,01,20,13.60
2007,08,15,01,21,13.60
2007,08,15,01,22,13.60
2007,08,15,01,23,13.60
2007,08,15,01,24,13.60
2007,08,15,01,25,13.60
2007,08,15,01,26,13.50
2007,08,15,01,27,13.50
2007,08,15,01,28,13.50
2007,08,15,01,29,13.50
2007,08,15,01,30,13.50
2007,08,15,01,31,13.50
2007,08,15,01,32,13.50
2007,08,15,01,33,13.50
2007,08,15,01,34,13.40
2007,08,15,01,35,13.40
2007,08,15,01,36,13.40
2007,08,15,01,37,13.40
2007,08,15,01,38,13.40
2007,08,15,01,39,13.40
2007,08,15,01,40,13.40
2007,08,15,01,41,13.40
2007,08,15,01,42,13.40
2007,08,15,01,43,13.40
2007,08,15,01,44,13.40
2007,08,15,01,45,13.40
2007,08,15,01,46,13.40
2007,08,15,01,47,13.40
2007,08,15,01,48,13.30
2007,08,15,01,49,13.30
2007,08,15,01,50,13.30
2007,08,15,01,51,13.30
2007,08,15,01,52,13.30
2007,08,15,01,53,13.30
2007,08,15,01,54,13.30
2007,08,15,01,55,13.30
2007,08,15,01,56,13.30
2007,08,15,01,57,13.30
2007,08,15,01,58,13.30
2007,08,15,01,59,13.30
2007,08,15,02,00,13.30
2007,08,15,02,01,13.30
2007,08,15,02,02,13.30
2007,08,15,02,03,13.30
2007,08,15,02,04,13.30
2007,08,15,02,05,13.30
2007,08,15,02,06,13.30
2007,08,15,02,07,13.30
2007,08,15,02,08,13.20
2007,08,15,02,09,13.20
2007,08,15,02,10,13.30
2007,08,15,02,11,13.30
2007,08,15,02,12,13.30
2007,08,15,02,13,13.20
2007,08,15,02,14,13.20
2007,08,15,02,15,13.20
2007,08,15,02,16,13.20
2007,08,15,02,17,13.20
2007,08,15,02,18,13.20
2007,08,15,02,19,13.20
2007,08,15,02,20,13.20
2007,08,15,02,21,13.20
2007,08,15,02,22,13.20
2007,08,15,02,23,13.20
2007,08,15,02,24,13.20
2007,08,15,02,25,13.20
2007,08,15,02,26,13.20
2007,08,15,02,27,13.20
2007,08,15,02,28,13.20
2007,08,15,02,29,13.20
2007,08,15,02,30,13.20
2007,08,15,02,31,13.20
2007,08,15,02,32,13.10
2007,08,15,02,33,13.10
2007,08,15,02,34,13.10
2007,08,15,02,35,13.10
2007,08,15,02,36,13.10
2007,08,15,02,37,13.10
2007,08,15,02,38,13.10
2007,08,15,02,39,13.10
2007,08,15,02,40,13.10
2007,08,15,02,41,13.10
2007,08,15,02,42,13.10
2007,08,15,02,43,13.10
2007,08,15,02,44,13.10
2007,08,15,02,45,13.10
2007,08,15,02,46,13.10
2007,08,15,02,47,13.10
2007,08,15,02,48,13.10
2007,08,15,02,49,13.00
2007,08,15,02,50,13.00
2007,08,15,02,51,13.00
2007,08,15,02,52,13.00
2007,08,15,02,53,13.00
2007,08,15,02,54,13.00
2007,08,15,02,55,13.00
2007,08,15,02,56,13.00
2007,08,15,02,57,13.00
2007,08,15,02,58,13.00
2007,08,15,02,59,13.00
2007,08,15,03,00,13.00
2007,08,15,03,01,13.00
2007,08,15,03,02,13.00
2007,08,15,03,03,12.90
2007,08,15,03,04,12.90
2007,08,15,03,05,12.90
2007,08,15,03,06,12.90
2007,08,15,03,07,12.90
2007,08,15,03,08,12.90
2007,08,15,03,09,12.90
2007,08,15,03,10,12.90
2007,08,15,03,11,12.90
2007,08,15,03,12,12.90
2007,08,15,03,13,12.90
2007,08,15,03,14,12.80
2007,08,15,03,15,12.80
2007,08,15,03,16,12.80
2007,08,15,03,17,12.80
2007,08,15,03,18,12.80
2007,08,15,03,19,12.80
2007,08,15,03,20,12.80
2007,08,15,03,21,12.80
2007,08,15,03,22,12.80
2007,08,15,03,23,12.80
2007,08,15,03,24,12.80
2007,08,15,03,25,12.80
2007,08,15,03,26,12.80
2007,08,15,03,27,12.80
2007,08,15,03,28,12.80
2007,08,15,03,29,12.80
2007,08,15,03,30,12.80
2007,08,15,03,31,12.80
2007,08,15,03,32,12.80
2007,08,15,03,33,12.80
2007,08,15,03,34,12.80
2007,08,15,03,35,12.80
2007,08,15,03,36,12.80
2007,08,15,03,37,12.80
2007,08,15,03,38,12.80
2007,08,15,03,39,12.80
2007,08,15,03,40,12.80
2007,08,15,03,41,12.70
2007,08,15,03,42,12.70
2007,08,15,03,43,12.70
2007,08,15,03,44,12.70
2007,08,15,03,45,12.70
2007,08,15,03,46,12.70
2007,08,15,03,47,12.70
2007,08,15,03,48,12.70
2007,08,15,03,49,12.70
2007,08,15,03,50,12.70
2007,08,15,03,51,12.70
2007,08,15,03,52,12.70
2007,08,15,03,53,12.60
2007,08,15,03,54,12.60
2007,08,15,03,55,12.60
2007,08,15,03,56,12.60
2007,08,15,03,57,12.60
2007,08,15,03,58,12.60
2007,08,15,03,59,12.60
2007,08,15,04,00,12.60
2007,08,15,04,01,12.60
2007,08,15,04,02,12.60
2007,08,15,04,03,12.60
2007,08,15,04,04,12.60
2007,08,15,04,05,12.60
2007,08,15,04,06,12.60
2007,08,15,04,07,12.60
2007,08,15,04,08,12.60
2007,08,15,04,09,12.60
2007,08,15,04,10,12.60
2007,08,15,04,11,12.60
2007,08,15,04,12,12.60
2007,08,15,04,13,12.60
2007,08,15,04,14,12.60
2007,08,15,04,15,12.60
2007,08,15,04,16,12.60
2007,08,15,04,17,12.60
2007,08,15,04,18,12.60
2007,08,15,04,19,12.60
2007,08,15,04,20,12.60
2007,08,15,04,21,12.60
2007,08,15,04,22,12.60
2007,08,15,04,23,12.60
2007,08,15,04,24,12.60
2007,08,15,04,25,12.60
2007,08,15,04,26,12.60
2007,08,15,04,27,12.60
2007,08,15,04,28,12.60
2007,08,15,04,29,12.50
2007,08,15,04,30,12.50
2007,08,15,04,31,12.50
2007,08,15,04,32,12.50
2007,08,15,04,33,12.50
2007,08,15,04,34,12.50
2007,08,15,04,35,12.50
2007,08,15,04,36,12.50
2007,08,15,04,37,12.50
2007,08,15,04,38,12.40
2007,08,15,04,39,12.40
2007,08,15,04,40,12.40
2007,08,15,04,41,12.40
2007,08,15,04,42,12.40
2007,08,15,04,43,12.40
2007,08,15,04,44,12.40
2007,08,15,04,45,12.40
2007,08,15,04,46,12.40
2007,08,15,04,47,12.40
2007,08,15,04,48,12.40
2007,08,15,04,49,12.40
2007,08,15,04,50,12.40
2007,08,15,04,51,12.40
2007,08,15,04,52,12.40
2007,08,15,04,53,12.40
2007,08,15,04,54,12.40
2007,08,15,04,55,12.40
2007,08,15,04,56,12.40
2007,08,15,04,57,12.40
2007,08,15,04,58,12.40
2007,08,15,04,59,12.40
2007,08,15,05,00,12.40
2007,08,15,05,01,12.40
2007,08,15,05,02,12.40
2007,08,15,05,03,12.40
2007,08,15,05,04,12.40
2007,08,15,05,05,12.40
2007,08,15,05,06,12.40
2007,08,15,05,07,12.30
2007,08,15,05,08,12.30
2007,08,15,05,09,12.30
2007,08,15,05,10,12.30
2007,08,15,05,11,12.30
2007,08,15,05,12,12.30
2007,08,15,05,13,12.30
2007,08,15,05,14,12.30
2007,08,15,05,15,12.30
2007,08,15,05,16,12.30
2007,08,15,05,17,12.30
2007,08,15,05,18,12.30
2007,08,15,05,19,12.30
2007,08,15,05,20,12.30
2007,08,15,05,21,12.30
2007,08,15,05,22,12.30
2007,08,15,05,23,12.30
2007,08,15,05,24,12.30
2007,08,15,05,25,12.30
2007,08,15,05,26,12.30
2007,08,15,05,27,12.30
2007,08,15,05,28,12.30
2007,08,15,05,29,12.20
2007,08,15,05,30,12.20
2007,08,15,05,31,12.20
2007,08,15,05,32,12.20
2007,08,15,05,33,12.20
2007,08,15,05,34,12.20
2007,08,15,05,35,12.20
2007,08,15,05,36,12.20
2007,08,15,05,37,12.20
2007,08,15,05,38,12.20
2007,08,15,05,39,12.20
2007,08,15,05,40,12.20
2007,08,15,05,41,12.20
2007,08,15,05,42,12.10
2007,08,15,05,43,12.10
2007,08,15,05,44,12.10
2007,08,15,05,45,12.10
2007,08,15,05,46,12.10
2007,08,15,05,47,12.10
2007,08,15,05,48,12.10
2007,08,15,05,49,12.10
2007,08,15,05,50,12.10
2007,08,15,05,51,12.10
2007,08,15,05,52,12.10
2007,08,15,05,53,12.10
2007,08,15,05,54,12.10
2007,08,15,05,55,12.10
2007,08,15,05,56,12.10
2007,08,15,05,57,12.10
2007,08,15,05,58,12.10
2007,08,15,05,59,12.00
2007,08,15,06,00,12.00
2007,08,15,06,01,12.00
2007,08,15,06,02,12.00
2007,08,15,06,03,12.00
2007,08,15,06,04,12.00
2007,08,15,06,05,12.00
2007,08,15,06,06,12.00
2007,08,15,06,07,12.00
2007,08,15,06,08,12.00
2007,08,15,06,09,12.00
2007,08,15,06,10,12.00
2007,08,15,06,11,12.00
2007,08,15,06,12,12.00
2007,08,15,06,13,12.00
2007,08,15,06,14,12.00
2007,08,15,06,15,12.00
2007,08,15,06,16,12.00
2007,08,15,06,17,12.00
2007,08,15,06,18,11.90
2007,08,15,06,19,11.90
2007,08,15,06,20,11.90
2007,08,15,06,21,11.90
2007,08,15,06,22,11.90
2007,08,15,06,23,11.90
2007,08,15,06,24,11.90
2007,08,15,06,25,11.90
2007,08,15,06,26,11.90
2007,08,15,06,27,12.00
2007,08,15,06,28,12.00
2007,08,15,06,29,12.00
2007,08,15,06,30,12.00
2007,08,15,06,31,12.00
2007,08,15,06,32,12.00
2007,08,15,06,33,12.00
2007,08,15,06,34,12.00
2007,08,15,06,35,12.00
2007,08,15,06,36,12.00
2007,08,15,06,37,12.00
2007,08,15,06,38,12.00
2007,08,15,06,39,12.00
2007,08,15,06,40,12.00
2007,08,15,06,41,12.00
2007,08,15,06,42,12.00
2007,08,15,06,43,12.00
2007,08,15,06,44,12.00
2007,08,15,06,45,12.00
2007,08,15,06,46,12.00
2007,08,15,06,47,12.10
2007,08,15,06,48,12.10
2007,08,15,06,49,12.10
2007,08,15,06,50,12.10
2007,08,15,06,51,12.10
2007,08,15,06,52,12.10
2007,08,15,06,53,12.10
2007,08,15,06,54,12.10
2007,08,15,06,55,12.20
2007,08,15,06,56,12.20
2007,08,15,06,57,12.20
2007,08,15,06,58,12.20
2007,08,15,06,59,12.30
2007,08,15,07,00,12.30
2007,08,15,07,01,12.30
2007,08,15,07,02,12.30
2007,08,15,07,03,12.30
2007,08,15,07,04,12.40
2007,08,15,07,05,12.40
2007,08,15,07,06,12.40
2007,08,15,07,07,12.50
2007,08,15,07,08,12.50
2007,08,15,07,09,12.50
2007,08,15,07,10,12.60
2007,08,15,07,11,12.60
2007,08,15,07,12,12.70
2007,08,15,07,13,12.80
2007,08,15,07,14,12.80
2007,08,15,07,15,12.90
2007,08,15,07,16,12.90
2007,08,15,07,17,13.00
2007,08,15,07,18,13.00
2007,08,15,07,19,13.10
2007,08,15,07,20,13.10
2007,08,15,07,21,13.10
2007,08,15,07,22,13.10
2007,08,15,07,23,13.20
2007,08,15,07,24,13.20
2007,08,15,07,25,13.20
2007,08,15,07,26,13.20
2007,08,15,07,27,13.20
2007,08,15,07,28,13.20
2007,08,15,07,29,13.30
2007,08,15,07,30,13.30
2007,08,15,07,31,13.30
2007,08,15,07,32,13.30
2007,08,15,07,33,13.30
2007,08,15,07,34,13.40
2007,08,15,07,35,13.40
2007,08,15,07,36,13.50
2007,08,15,07,37,13.50
2007,08,15,07,38,13.50
2007,08,15,07,39,13.60
2007,08,15,07,40,13.60
2007,08,15,07,41,13.70
2007,08,15,07,42,13.70
2007,08,15,07,43,13.70
2007,08,15,07,44,13.80
2007,08,15,07,45,13.90
2007,08,15,07,46,13.90
2007,08,15,07,47,14.00
2007,08,15,07,48,14.00
2007,08,15,07,49,14.10
2007,08,15,07,50,14.10
2007,08,15,07,51,14.20
2007,08,15,07,52,14.20
2007,08,15,07,53,14.30
2007,08,15,07,54,14.40
2007,08,15,07,55,14.50
2007,08,15,07,56,14.50
2007,08,15,07,57,14.60
2007,08,15,07,58,14.70
2007,08,15,07,59,14.80
2007,08,15,08,00,14.80
2007,08,15,08,01,14.90
2007,08,15,08,02,15.00
2007,08,15,08,03,15.10
2007,08,15,08,04,15.20
2007,08,15,08,05,15.30
2007,08,15,08,06,15.40
2007,08,15,08,07,15.50
2007,08,15,08,08,15.60
2007,08,15,08,09,15.70
2007,08,15,08,10,15.90
2007,08,15,08,11,16.10
2007,08,15,08,12,16.20
2007,08,15,08,13,16.40
2007,08,15,08,14,16.50
2007,08,15,08,15,16.70
2007,08,15,08,16,16.80
2007,08,15,08,17,17.00
2007,08,15,08,18,17.10
2007,08,15,08,19,17.30
2007,08,15,08,20,17.40
2007,08,15,08,21,17.50
2007,08,15,08,22,17.70
2007,08,15,08,23,17.80
2007,08,15,08,24,17.90
2007,08,15,08,25,17.90
2007,08,15,08,26,18.10
2007,08,15,08,27,18.10
2007,08,15,08,28,18.20
2007,08,15,08,29,18.20
2007,08,15,08,30,18.30
2007,08,15,08,31,18.40
2007,08,15,08,32,18.50
2007,08,15,08,33,18.50
2007,08,15,08,34,18.60
2007,08,15,08,35,18.70
2007,08,15,08,36,18.70
2007,08,15,08,37,18.80
2007,08,15,08,38,18.80
2007,08,15,08,39,18.90
2007,08,15,08,40,18.90
2007,08,15,08,41,18.90
2007,08,15,08,42,18.90
2007,08,15,08,43,19.00
2007,08,15,08,44,19.10
2007,08,15,08,45,19.10
2007,08,15,08,46,19.10
2007,08,15,08,47,19.10
2007,08,15,08,48,19.10
2007,08,15,08,49,19.10
2007,08,15,08,50,19.10
2007,08,15,08,51,19.10
2007,08,15,08,52,19.20
2007,08,15,08,53,19.30
2007,08,15,08,54,19.30
2007,08,15,08,55,19.40
2007,08,15,08,56,19.40
2007,08,15,08,57,19.40
2007,08,15,08,58,19.50
2007,08,15,08,59,19.50
2007,08,15,09,00,19.60
2007,08,15,09,01,19.60
2007,08,15,09,02,19.70
2007,08,15,09,03,19.80
2007,08,15,09,04,19.80
2007,08,15,09,05,19.80
2007,08,15,09,06,19.80
2007,08,15,09,07,19.80
2007,08,15,09,08,19.90
2007,08,15,09,09,19.90
2007,08,15,09,10,19.90
2007,08,15,09,11,19.90
2007,08,15,09,12,19.90
2007,08,15,09,13,19.90
2007,08,15,09,14,19.90
2007,08,15,09,15,19.90
2007,08,15,09,16,19.90
2007,08,15,09,17,20.00
2007,08,15,09,18,20.10
2007,08,15,09,19,20.10
2007,08,15,09,20,20.10
2007,08,15,09,21,20.10
2007,08,15,09,22,20.10
2007,08,15,09,23,20.10
2007,08,15,09,24,20.20
2007,08,15,09,25,20.20
2007,08,15,09,26,20.20
2007,08,15,09,27,20.20
2007,08,15,09,28,20.20
2007,08,15,09,29,20.20
2007,08,15,09,30,20.20
2007,08,15,09,31,20.30
2007,08,15,09,32,20.30
2007,08,15,09,33,20.30
2007,08,15,09,34,20.30
2007,08,15,09,35,20.40
2007,08,15,09,36,20.40
2007,08,15,09,37,20.40
2007,08,15,09,38,20.40
2007,08,15,09,39,20.40
2007,08,15,09,40,20.40
2007,08,15,09,41,20.40
2007,08,15,09,42,20.50
2007,08,15,09,43,20.50
2007,08,15,09,44,20.50
2007,08,15,09,45,20.60
2007,08,15,09,46,20.60
2007,08,15,09,47,20.60
2007,08,15,09,48,20.60
2007,08,15,09,49,20.60
2007,08,15,09,50,20.60
2007,08,15,09,51,20.70
2007,08,15,09,52,20.70
2007,08,15,09,53,20.70
2007,08,15,09,54,20.70
2007,08,15,09,55,20.70
2007,08,15,09,56,20.70
2007,08,15,09,57,20.70
2007,08,15,09,58,20.70
2007,08,15,09,59,20.70
2007,08,15,10,00,20.70
2007,08,15,10,01,20.70
2007,08,15,10,02,20.70
2007,08,15,10,03,20.80
2007,08,15,10,04,20.80
2007,08,15,10,05,20.80
2007,08,15,10,06,20.80
2007,08,15,10,07,20.90
2007,08,15,10,08,20.80
2007,08,15,10,09,20.80
2007,08,15,10,10,20.80
2007,08,15,10,11,20.80
2007,08,15,10,12,20.80
2007,08,15,10,13,20.80
2007,08,15,10,14,20.80
2007,08,15,10,15,20.90
2007,08,15,10,16,20.90
2007,08,15,10,17,21.00
2007,08,15,10,18,21.00
2007,08,15,10,19,21.00
2007,08,15,10,20,21.00
2007,08,15,10,21,21.00
2007,08,15,10,22,20.90
2007,08,15,10,23,20.90
2007,08,15,10,24,20.90
2007,08,15,10,25,21.00
2007,08,15,10,26,21.10
2007,08,15,10,27,21.20
2007,08,15,10,28,21.30
2007,08,15,10,29,21.30
2007,08,15,10,30,21.30
2007,08,15,10,31,21.30
2007,08,15,10,32,21.20
2007,08,15,10,33,21.20
2007,08,15,10,34,21.10
2007,08,15,10,35,21.00
2007,08,15,10,36,21.00
2007,08,15,10,37,21.00
2007,08,15,10,38,21.00
2007,08,15,10,39,21.10
2007,08,15,10,40,21.10
2007,08,15,10,41,21.10
2007,08,15,10,42,21.20
2007,08,15,10,43,21.30
2007,08,15,10,44,21.30
2007,08,15,10,45,21.50
2007,08,15,10,46,21.60
2007,08,15,10,47,21.60
2007,08,15,10,48,21.60
2007,08,15,10,49,21.60
2007,08,15,10,50,21.60
2007,08,15,10,51,21.60
2007,08,15,10,52,21.70
2007,08,15,10,53,21.80
2007,08,15,10,54,21.80
2007,08,15,10,55,21.90
2007,08,15,10,56,22.00
2007,08,15,10,57,22.00
2007,08,15,10,58,22.00
2007,08,15,10,59,22.00
2007,08,15,11,00,22.10
2007,08,15,11,01,22.10
2007,08,15,11,02,22.10
2007,08,15,11,03,22.10
2007,08,15,11,04,22.10
2007,08,15,11,05,22.00
2007,08,15,11,06,22.00
2007,08,15,11,07,22.00
2007,08,15,11,08,22.00
2007,08,15,11,09,22.00
2007,08,15,11,10,22.00
2007,08,15,11,11,22.00
2007,08,15,11,12,22.00
2007,08,15,11,13,21.90
2007,08,15,11,14,21.90
2007,08,15,11,15,21.90
2007,08,15,11,16,22.00
2007,08,15,11,17,22.00
2007,08,15,11,18,22.00
2007,08,15,11,19,22.00
2007,08,15,11,20,22.10
2007,08,15,11,21,22.10
2007,08,15,11,22,22.10
2007,08,15,11,23,22.10
2007,08,15,11,24,22.10
2007,08,15,11,25,22.10
2007,08,15,11,26,22.10
2007,08,15,11,27,22.20
2007,08,15,11,28,22.20
2007,08,15,11,29,22.30
2007,08,15,11,30,22.40
2007,08,15,11,31,22.40
2007,08,15,11,32,22.50
2007,08,15,11,33,22.50
2007,08,15,11,34,22.50
2007,08,15,11,35,22.60
2007,08,15,11,36,22.60
2007,08,15,11,37,22.60
2007,08,15,11,38,22.60
2007,08,15,11,39,22.60
2007,08,15,11,40,22.50
2007,08,15,11,41,22.50
2007,08,15,11,42,22.50
2007,08,15,11,43,22.50
2007,08,15,11,44,22.50
2007,08,15,11,45,22.50
2007,08,15,11,46,22.60
2007,08,15,11,47,22.70
2007,08,15,11,48,22.70
2007,08,15,11,49,22.80
2007,08,15,11,50,22.80
2007,08,15,11,51,22.90
2007,08,15,11,52,22.90
2007,08,15,11,53,23.00
2007,08,15,11,54,23.10
2007,08,15,11,55,23.10
2007,08,15,11,56,23.10
2007,08,15,11,57,23.10
2007,08,15,11,58,23.10
2007,08,15,11,59,23.10
2007,08,15,12,00,23.20
2007,08,15,12,01,23.20
2007,08,15,12,02,23.20
2007,08,15,12,03,23.30
2007,08,15,12,04,23.30
2007,08,15,12,05,23.30
2007,08,15,12,06,23.30
2007,08,15,12,07,23.30
2007,08,15,12,08,23.30
2007,08,15,12,09,23.30
2007,08,15,12,10,23.30
2007,08,15,12,11,23.30
2007,08,15,12,12,23.30
2007,08,15,12,13,23.30
2007,08,15,12,14,23.30
2007,08,15,12,15,23.30
2007,08,15,12,16,23.40
2007,08,15,12,17,23.40
2007,08,15,12,18,23.50
2007,08,15,12,19,23.60
2007,08,15,12,20,23.60
2007,08,15,12,21,23.60
2007,08,15,12,22,23.70
2007,08,15,12,23,23.70
2007,08,15,12,24,23.80
2007,08,15,12,25,23.90
2007,08,15,12,26,24.00
2007,08,15,12,27,24.10
2007,08,15,12,28,24.20
2007,08,15,12,29,24.20
2007,08,15,12,30,24.30
2007,08,15,12,31,24.40
2007,08,15,12,32,24.40
2007,08,15,12,33,24.40
2007,08,15,12,34,24.40
2007,08,15,12,35,24.40
2007,08,15,12,36,24.30
2007,08,15,12,37,24.20
2007,08,15,12,38,24.20
2007,08,15,12,39,24.30
2007,08,15,12,40,24.30
2007,08,15,12,41,24.30
2007,08,15,12,42,24.40
2007,08,15,12,43,24.40
2007,08,15,12,44,24.40
2007,08,15,12,45,24.40
2007,08,15,12,46,24.40
2007,08,15,12,47,24.30
2007,08,15,12,48,24.30
2007,08,15,12,49,24.20
2007,08,15,12,50,24.20
2007,08,15,12,51,24.10
2007,08,15,12,52,24.10
2007,08,15,12,53,23.90
2007,08,15,12,54,23.90
2007,08,15,12,55,24.00
2007,08,15,12,56,24.10
2007,08,15,12,57,24.10
2007,08,15,12,58,24.10
2007,08,15,12,59,24.20
2007,08,15,13,00,24.30
2007,08,15,13,01,24.40
2007,08,15,13,02,24.40
2007,08,15,13,03,24.40
2007,08,15,13,04,24.50
2007,08,15,13,05,24.50
2007,08,15,13,06,24.60
2007,08,15,13,07,24.70
2007,08,15,13,08,24.70
2007,08,15,13,09,24.70
2007,08,15,13,10,24.70
2007,08,15,13,11,24.70
2007,08,15,13,12,24.70
2007,08,15,13,13,24.70
2007,08,15,13,14,24.80
2007,08,15,13,15,24.80
2007,08,15,13,16,24.80
2007,08,15,13,17,24.80
2007,08,15,13,18,24.80
2007,08,15,13,19,24.70
2007,08,15,13,20,24.70
2007,08,15,13,21,24.70
2007,08,15,13,22,24.70
2007,08,15,13,23,24.70
2007,08,15,13,24,24.80
2007,08,15,13,25,24.80
2007,08,15,13,26,24.90
2007,08,15,13,27,25.00
2007,08,15,13,28,25.10
2007,08,15,13,29,25.20
2007,08,15,13,30,25.30
2007,08,15,13,31,25.30
2007,08,15,13,32,25.30
2007,08,15,13,33,25.30
2007,08,15,13,34,25.30
2007,08,15,13,35,25.30
2007,08,15,13,36,25.20
2007,08,15,13,37,25.20
2007,08,15,13,38,25.20
2007,08,15,13,39,25.20
2007,08,15,13,40,25.30
2007,08,15,13,41,25.30
2007,08,15,13,42,25.30
2007,08,15,13,43,25.30
2007,08,15,13,44,25.40
2007,08,15,13,45,25.40
2007,08,15,13,46,25.30
2007,08,15,13,47,25.30
2007,08,15,13,48,25.30
2007,08,15,13,49,25.30
2007,08,15,13,50,25.30
2007,08,15,13,51,25.30
2007,08,15,13,52,25.40
2007,08,15,13,53,25.40
2007,08,15,13,54,25.40
2007,08,15,13,55,25.40
2007,08,15,13,56,25.40
2007,08,15,13,57,25.40
2007,08,15,13,58,25.40
2007,08,15,13,59,25.40
2007,08,15,14,00,25.40
2007,08,15,14,01,25.40
2007,08,15,14,02,25.50
2007,08,15,14,03,25.60
2007,08,15,14,04,25.80
2007,08,15,14,05,25.80
2007,08,15,14,06,25.90
2007,08,15,14,07,25.90
2007,08,15,14,08,26.00
2007,08,15,14,09,26.00
2007,08,15,14,10,26.00
2007,08,15,14,11,26.00
2007,08,15,14,12,26.10
2007,08,15,14,13,26.20
2007,08,15,14,14,26.30
2007,08,15,14,15,26.40
2007,08,15,14,16,26.50
2007,08,15,14,17,26.60
2007,08,15,14,18,26.60
2007,08,15,14,19,26.70
2007,08,15,14,20,26.80
2007,08,15,14,21,26.90
2007,08,15,14,22,26.90
2007,08,15,14,23,26.80
2007,08,15,14,24,26.80
2007,08,15,14,25,26.80
2007,08,15,14,26,26.80
2007,08,15,14,27,26.80
2007,08,15,14,28,26.80
2007,08,15,14,29,26.80
2007,08,15,14,30,26.70
2007,08,15,14,31,26.60
2007,08,15,14,32,26.60
2007,08,15,14,33,26.60
2007,08,15,14,34,26.70
2007,08,15,14,35,26.70
2007,08,15,14,36,26.80
2007,08,15,14,37,27.00
2007,08,15,14,38,27.10
2007,08,15,14,39,27.10
2007,08,15,14,40,27.10
2007,08,15,14,41,27.20
2007,08,15,14,42,27.30
2007,08,15,14,43,27.20
2007,08,15,14,44,27.20
2007,08,15,14,45,27.20
2007,08,15,14,46,27.20
2007,08,15,14,47,26.90
2007,08,15,14,48,26.80
2007,08,15,14,49,26.80
2007,08,15,14,50,26.80
2007,08,15,14,51,26.80
2007,08,15,14,52,26.80
2007,08,15,14,53,26.80
2007,08,15,14,54,26.80
2007,08,15,14,55,26.70
2007,08,15,14,56,26.60
2007,08,15,14,57,26.60
2007,08,15,14,58,26.60
2007,08,15,14,59,26.60
2007,08,15,15,00,26.60
2007,08,15,15,01,26.60
2007,08,15,15,02,26.60
2007,08,15,15,03,26.60
2007,08,15,15,04,26.60
2007,08,15,15,05,26.60
2007,08,15,15,06,26.50
2007,08,15,15,07,26.50
2007,08,15,15,08,26.60
2007,08,15,15,09,26.50
2007,08,15,15,10,26.40
2007,08,15,15,11,26.30
2007,08,15,15,12,26.10
2007,08,15,15,13,25.90
2007,08,15,15,14,25.80
2007,08,15,15,15,25.70
2007,08,15,15,16,25.60
2007,08,15,15,17,25.60
2007,08,15,15,18,25.40
2007,08,15,15,19,25.40
2007,08,15,15,20,25.30
2007,08,15,15,21,25.10
2007,08,15,15,22,25.00
2007,08,15,15,23,24.90
2007,08,15,15,24,24.90
2007,08,15,15,25,25.00
2007,08,15,15,26,25.00
2007,08,15,15,27,25.00
2007,08,15,15,28,25.00
2007,08,15,15,29,25.00
2007,08,15,15,30,25.00
2007,08,15,15,31,25.10
2007,08,15,15,32,25.10
2007,08,15,15,33,25.00
2007,08,15,15,34,25.00
2007,08,15,15,35,25.00
2007,08,15,15,36,25.00
2007,08,15,15,37,25.10
2007,08,15,15,38,25.20
2007,08,15,15,39,25.20
2007,08,15,15,40,25.30
2007,08,15,15,41,25.30
2007,08,15,15,42,25.30
2007,08,15,15,43,25.20
2007,08,15,15,44,25.10
2007,08,15,15,45,25.00
2007,08,15,15,46,25.00
2007,08,15,15,47,25.00
2007,08,15,15,48,25.00
2007,08,15,15,49,24.90
2007,08,15,15,50,25.00
2007,08,15,15,51,25.00
2007,08,15,15,52,25.00
2007,08,15,15,53,24.90
2007,08,15,15,54,24.90
2007,08,15,15,55,24.90
2007,08,15,15,56,25.00
2007,08,15,15,57,25.00
2007,08,15,15,58,25.10
2007,08,15,15,59,25.10
2007,08,15,16,00,25.10
2007,08,15,16,01,25.10
2007,08,15,16,02,25.10
2007,08,15,16,03,25.10
2007,08,15,16,04,25.10
2007,08,15,16,05,25.10
2007,08,15,16,06,25.20
2007,08,15,16,07,25.20
2007,08,15,16,08,25.20
2007,08,15,16,09,25.20
2007,08,15,16,10,25.20
2007,08,15,16,11,25.10
2007,08,15,16,12,25.00
2007,08,15,16,13,24.90
2007,08,15,16,14,24.80
2007,08,15,16,15,24.80
2007,08,15,16,16,24.80
2007,08,15,16,17,24.90
2007,08,15,16,18,24.90
2007,08,15,16,19,25.00
2007,08,15,16,20,25.20
2007,08,15,16,21,25.30
2007,08,15,16,22,25.30
2007,08,15,16,23,25.30
2007,08,15,16,24,25.40
2007,08,15,16,25,25.40
2007,08,15,16,26,25.50
2007,08,15,16,27,25.60
2007,08,15,16,28,25.70
2007,08,15,16,29,25.80
2007,08,15,16,30,25.90
2007,08,15,16,31,25.90
2007,08,15,16,32,25.90
2007,08,15,16,33,25.90
2007,08,15,16,34,25.90
2007,08,15,16,35,25.80
2007,08,15,16,36,25.80
2007,08,15,16,37,25.80
2007,08,15,16,38,25.80
2007,08,15,16,39,25.70
2007,08,15,16,40,25.70
2007,08,15,16,41,25.70
2007,08,15,16,42,25.80
2007,08,15,16,43,25.80
2007,08,15,16,44,25.80
2007,08,15,16,45,25.70
2007,08,15,16,46,25.80
2007,08,15,16,47,25.80
2007,08,15,16,48,25.80
2007,08,15,16,49,25.90
2007,08,15,16,50,25.90
2007,08,15,16,51,25.90
2007,08,15,16,52,25.90
2007,08,15,16,53,25.90
2007,08,15,16,54,25.90
2007,08,15,16,55,25.90
2007,08,15,16,56,26.00
2007,08,15,16,57,26.00
2007,08,15,16,58,26.10
2007,08,15,16,59,26.20
2007,08,15,17,00,26.20
2007,08,15,17,01,26.30
2007,08,15,17,02,26.50
2007,08,15,17,03,26.60
2007,08,15,17,04,26.80
2007,08,15,17,05,26.80
2007,08,15,17,06,26.90
2007,08,15,17,07,27.00
2007,08,15,17,08,27.10
2007,08,15,17,09,27.10
2007,08,15,17,10,27.10
2007,08,15,17,11,27.10
2007,08,15,17,12,27.10
2007,08,15,17,13,27.10
2007,08,15,17,14,27.10
2007,08,15,17,15,27.20
2007,08,15,17,16,27.30
2007,08,15,17,17,27.30
2007,08,15,17,18,27.20
2007,08,15,17,19,27.20